[Date Prev][Date Next][Thread Prev][Thread Next] - [Date Index][Thread Index][Author Index]

2 Line ISS Keps 10-7



ISS 
1 25544U 98067A   04281.45612029  .00016993  00000-0  14983-3 0  8551
2 25544  51.6348 112.8349 0009509 195.9101 256.4207 15.68798625335954
----
Via the sarex mailing list at AMSAT.ORG courtesy of AMSAT-NA.
To unsubscribe, send "unsubscribe sarex" to Majordomo@amsat.org



AMSAT Top AMSAT Home